| time (UTC) | temp C | wind direction | speed KPH | gust KPH | rain 1hr cm | rain 24hr cm | rain mn cm | humidity % | barometer mb |
| 20260508125528 | 15 | 20 | 0.0 | 0.0 | 0.00 | 0.00 | 0.00 | 83 | 1018.5 |
| 20260508125026 | 14 | 345 | 0.0 | 0.0 | 0.00 | 0.00 | 0.00 | 79 | 1018.7 |
| 20260508124524 | 13 | 9 | 0.0 | 0.0 | 0.00 | 0.00 | 0.00 | 85 | 1018.6 |
| 20260508124021 | 12 | 4 | 0.0 | 0.0 | 0.00 | 0.00 | 0.00 | 89 | 1018.7 |
| 20260508123520 | 11 | 356 | 0.0 | 0.0 | 0.00 | 0.00 | 0.00 | 98 | 1018.6 |
| 20260508123016 | 11 | 355 | 0.0 | 0.0 | 0.00 | 0.00 | 0.00 | 99 | 1018.6 |
| 20260508122513 | 10 | 341 | 0.0 | 0.0 | 0.00 | 0.00 | 0.00 | 99 | 1018.7 |
| 20260508122010 | 10 | 341 | 0.0 | 0.0 | 0.00 | 0.00 | 0.00 | 99 | 1018.7 |
| 20260508121508 | 10 | 342 | 0.0 | 0.0 | 0.00 | 0.00 | 0.00 | 99 | 1018.4 |
| 20260508121006 | 10 | 341 | 0.0 | 0.0 | 0.00 | 0.00 | 0.00 | 99 | 1018.6 |
| 20260508120503 | 9 | 341 | 0.0 | 0.0 | 0.00 | 0.00 | 0.00 | 99 | 1018.4 |
| 20260508120001 | 8 | 341 | 0.0 | 0.0 | 0.00 | 0.00 | 0.00 | 99 | 1018.5 |
| 20260508115458 | 8 | 344 | 0.0 | 0.0 | 0.00 | 0.00 | 0.00 | 99 | 1018.2 |
| 20260508114955 | 9 | 349 | 0.0 | 0.0 | 0.00 | 0.00 | 0.00 | 99 | 1018.0 |
| 20260508114452 | 7 | 349 | 0.0 | 0.0 | 0.00 | 0.00 | 0.00 | 99 | 1018.2 |
| 20260508113948 | 7 | 332 | 0.0 | 0.0 | 0.00 | 0.00 | 0.00 | 99 | 1018.2 |
| 20260508113446 | 7 | 2 | 0.0 | 0.0 | 0.00 | 0.00 | 0.00 | 99 | 1018.0 |
| 20260508112943 | 6 | 2 | 0.0 | 0.0 | 0.00 | 0.00 | 0.00 | 99 | 1017.9 |
| 20260508112439 | 6 | 2 | 0.0 | 0.0 | 0.00 | 0.00 | 0.00 | 99 | 1017.8 |
| 20260508111936 | 6 | 2 | 0.0 | 0.0 | 0.00 | 0.00 | 0.00 | 99 | 1018.2 |
| 20260508111433 | 5 | 2 | 0.0 | 0.0 | 0.00 | 0.00 | 0.00 | 99 | 1017.7 |
| 20260508110930 | 5 | 2 | 0.0 | 0.0 | 0.00 | 0.00 | 0.00 | 99 | 1017.6 |
| 20260508110428 | 5 | 2 | 0.0 | 0.0 | 0.00 | 0.00 | 0.00 | 99 | 1017.7 |
| 20260508105927 | 5 | 352 | 0.0 | 0.0 | 0.00 | 0.00 | 0.00 | 99 | 1017.4 |
| 20260508105424 | 5 | 352 | 0.0 | 0.0 | 0.00 | 0.00 | 0.00 | 99 | 1017.5 |
| 20260508104921 | 5 | 352 | 0.0 | 0.0 | 0.00 | 0.00 | 0.00 | 99 | 1017.3 |
| 20260508104419 | 5 | 350 | 0.0 | 0.0 | 0.00 | 0.00 | 0.00 | 99 | 1017.1 |
| 20260508103915 | 5 | 342 | 0.0 | 0.0 | 0.00 | 0.00 | 0.00 | 99 | 1017.0 |
| 20260508103412 | 5 | 341 | 0.0 | 0.0 | 0.00 | 0.00 | 0.00 | 99 | 1017.0 |
| 20260508102909 | 4 | 3 | 0.0 | 0.0 | 0.00 | 0.00 | 0.00 | 99 | 1016.8 |
| 20260508102408 | 5 | 5 | 0.0 | 0.0 | 0.00 | 0.00 | 0.00 | 99 | 1016.9 |
| 20260508101905 | 5 | 0 | 0.0 | 0.0 | 0.00 | 0.00 | 0.00 | 99 | 1016.6 |
| 20260508101402 | 5 | 356 | 0.0 | 0.0 | 0.00 | 0.00 | 0.00 | 99 | 1017.0 |
| 20260508100859 | 5 | 4 | 0.0 | 0.0 | 0.00 | 0.00 | 0.00 | 99 | 1016.8 |
| 20260508100358 | 5 | 1 | 0.0 | 0.0 | 0.00 | 0.00 | 0.00 | 99 | 1016.7 |
| 20260508095853 | 5 | 358 | 0.0 | 0.0 | 0.00 | 0.00 | 0.00 | 99 | 1016.6 |
| 20260508095352 | 5 | 358 | 0.0 | 0.0 | 0.00 | 0.00 | 0.00 | 99 | 1016.6 |
| 20260508094848 | 5 | 358 | 0.0 | 0.0 | 0.00 | 0.00 | 0.00 | 99 | 1016.5 |
| 20260508094345 | 5 | 358 | 0.0 | 0.0 | 0.00 | 0.00 | 0.00 | 99 | 1016.3 |
| 20260508093842 | 5 | 358 | 0.0 | 0.0 | 0.00 | 0.00 | 0.00 | 99 | 1016.4 |
| 20260508093339 | 6 | 358 | 0.0 | 0.0 | 0.00 | 0.00 | 0.00 | 99 | 1016.4 |
| 20260508092836 | 6 | 358 | 0.0 | 0.0 | 0.00 | 0.00 | 0.00 | 99 | 1016.5 |
| 20260508092334 | 6 | 358 | 0.0 | 0.0 | 0.00 | 0.00 | 0.00 | 99 | 1016.4 |
| 20260508091832 | 5 | 358 | 0.0 | 0.0 | 0.00 | 0.00 | 0.00 | 99 | 1016.3 |
| 20260508091328 | 5 | 358 | 0.0 | 0.0 | 0.00 | 0.00 | 0.00 | 99 | 1016.3 |
| 20260508090826 | 5 | 358 | 0.0 | 0.0 | 0.00 | 0.00 | 0.00 | 99 | 1016.3 |
| 20260508090326 | 5 | 358 | 0.0 | 0.0 | 0.00 | 0.00 | 0.00 | 99 | 1016.0 |
| 20260508085826 | 5 | 358 | 0.0 | 0.0 | 0.00 | 0.00 | 0.00 | 99 | 1016.2 |
| 20260508085323 | 6 | 358 | 0.0 | 0.0 | 0.00 | 0.00 | 0.00 | 99 | 1016.1 |
| 20260508084819 | 6 | 358 | 0.0 | 0.0 | 0.00 | 0.00 | 0.00 | 99 | 1016.1 |
| 20260508084317 | 6 | 358 | 0.0 | 0.0 | 0.00 | 0.00 | 0.00 | 99 | 1016.3 |
| 20260508083814 | 6 | 358 | 0.0 | 0.0 | 0.00 | 0.00 | 0.00 | 99 | 1016.1 |
| 20260508083312 | 6 | 358 | 0.0 | 0.0 | 0.00 | 0.00 | 0.00 | 99 | 1016.0 |
| 20260508082811 | 6 | 358 | 0.0 | 0.0 | 0.00 | 0.00 | 0.00 | 99 | 1016.2 |
| 20260508082309 | 6 | 358 | 0.0 | 0.0 | 0.00 | 0.00 | 0.00 | 99 | 1016.3 |
| 20260508081806 | 6 | 350 | 0.0 | 0.0 | 0.00 | 0.00 | 0.00 | 99 | 1016.1 |
| 20260508081303 | 6 | 359 | 0.0 | 0.0 | 0.00 | 0.00 | 0.00 | 99 | 1016.1 |
| 20260508080800 | 6 | 359 | 0.0 | 0.0 | 0.00 | 0.00 | 0.00 | 99 | 1016.1 |
| 20260508080258 | 6 | 359 | 0.0 | 0.0 | 0.00 | 0.00 | 0.00 | 99 | 1015.7 |
| 20260508075754 | 6 | 359 | 0.0 | 0.0 | 0.00 | 0.00 | 0.00 | 99 | 1015.6 |
| 20260508075251 | 7 | 359 | 0.0 | 0.0 | 0.00 | 0.00 | 0.00 | 99 | 1016.0 |
| 20260508074749 | 7 | 359 | 0.0 | 0.0 | 0.00 | 0.00 | 0.00 | 99 | 1015.6 |
| 20260508074246 | 7 | 359 | 0.0 | 0.0 | 0.00 | 0.00 | 0.00 | 99 | 1015.7 |
| 20260508073743 | 7 | 359 | 0.0 | 0.0 | 0.00 | 0.00 | 0.00 | 99 | 1015.7 |
| 20260508073241 | 7 | 359 | 0.0 | 0.0 | 0.00 | 0.00 | 0.00 | 99 | 1015.9 |
| 20260508072736 | 7 | 359 | 0.0 | 0.0 | 0.00 | 0.00 | 0.00 | 99 | 1015.6 |
| 20260508072233 | 7 | 359 | 0.0 | 0.0 | 0.00 | 0.00 | 0.00 | 99 | 1015.8 |
| 20260508071731 | 7 | 359 | 0.0 | 0.0 | 0.00 | 0.00 | 0.00 | 99 | 1015.7 |
| 20260508071229 | 7 | 359 | 0.0 | 0.0 | 0.00 | 0.00 | 0.00 | 99 | 1015.5 |
| 20260508070726 | 7 | 359 | 0.0 | 0.0 | 0.00 | 0.00 | 0.00 | 99 | 1015.5 |
| 20260508070225 | 7 | 3 | 0.0 | 0.0 | 0.00 | 0.00 | 0.00 | 99 | 1015.3 |
| 20260508065722 | 7 | 354 | 0.0 | 0.0 | 0.00 | 0.00 | 0.00 | 99 | 1015.5 |
| 20260508065220 | 7 | 354 | 0.0 | 0.0 | 0.00 | 0.00 | 0.00 | 99 | 1015.3 |
| 20260508064717 | 8 | 354 | 0.0 | 0.0 | 0.00 | 0.00 | 0.00 | 99 | 1015.4 |
| 20260508064215 | 8 | 354 | 0.0 | 0.0 | 0.00 | 0.00 | 0.00 | 99 | 1015.5 |
| 20260508063712 | 8 | 344 | 0.0 | 0.0 | 0.00 | 0.00 | 0.00 | 99 | 1015.3 |
| 20260508063210 | 8 | 344 | 0.0 | 0.0 | 0.00 | 0.00 | 0.00 | 99 | 1015.5 |
| 20260508062707 | 8 | 343 | 0.0 | 0.0 | 0.00 | 0.00 | 0.00 | 99 | 1015.3 |
| 20260508062204 | 8 | 5 | 0.0 | 0.0 | 0.00 | 0.00 | 0.00 | 99 | 1015.3 |
| 20260508061701 | 8 | 5 | 0.0 | 0.0 | 0.00 | 0.00 | 0.00 | 99 | 1015.3 |
| 20260508061159 | 8 | 5 | 0.0 | 0.0 | 0.00 | 0.00 | 0.00 | 99 | 1015.3 |
| 20260508060655 | 8 | 342 | 0.0 | 0.0 | 0.00 | 0.00 | 0.00 | 99 | 1015.3 |
| 20260508060153 | 8 | 339 | 0.0 | 0.0 | 0.00 | 0.00 | 0.00 | 99 | 1015.3 |
| 20260508055648 | 8 | 353 | 0.0 | 0.0 | 0.00 | 0.00 | 0.00 | 99 | 1015.2 |
| 20260508055145 | 8 | 351 | 0.0 | 0.0 | 0.00 | 0.00 | 0.00 | 99 | 1015.2 |
| 20260508054641 | 8 | 351 | 0.0 | 0.0 | 0.00 | 0.00 | 0.00 | 99 | 1015.2 |
| 20260508054139 | 8 | 351 | 0.0 | 0.0 | 0.00 | 0.00 | 0.00 | 99 | 1015.1 |
| 20260508053636 | 8 | 351 | 0.0 | 0.0 | 0.00 | 0.00 | 0.00 | 99 | 1015.0 |
| 20260508053133 | 9 | 351 | 0.0 | 0.0 | 0.00 | 0.00 | 0.00 | 99 | 1015.0 |
| 20260508052631 | 8 | 2 | 0.0 | 0.0 | 0.00 | 0.00 | 0.00 | 99 | 1015.0 |
| 20260508052128 | 8 | 2 | 0.0 | 0.0 | 0.00 | 0.00 | 0.00 | 99 | 1015.0 |
| 20260508051623 | 8 | 2 | 0.0 | 0.0 | 0.00 | 0.00 | 0.00 | 99 | 1015.1 |
| 20260508051119 | 8 | 2 | 0.0 | 0.0 | 0.00 | 0.00 | 0.00 | 99 | 1015.0 |
| 20260508050615 | 9 | 2 | 0.0 | 0.0 | 0.00 | 0.00 | 0.00 | 99 | 1015.2 |
| 20260508050113 | 9 | 2 | 0.0 | 0.0 | 0.00 | 0.00 | 0.00 | 99 | 1014.9 |
| 20260508045609 | 9 | 2 | 0.0 | 0.0 | 0.00 | 0.00 | 0.00 | 99 | 1015.0 |
| 20260508045107 | 8 | 4 | 0.0 | 0.0 | 0.00 | 0.00 | 0.00 | 99 | 1015.0 |
| 20260508044604 | 9 | 341 | 0.0 | 0.0 | 0.00 | 0.00 | 0.00 | 99 | 1015.0 |
| 20260508044100 | 10 | 341 | 0.0 | 0.0 | 0.00 | 0.00 | 0.00 | 99 | 1014.7 |
| 20260508043557 | 10 | 341 | 0.0 | 0.0 | 0.00 | 0.00 | 0.00 | 99 | 1015.0 |
| 20260508043054 | 10 | 341 | 0.0 | 0.0 | 0.00 | 0.00 | 0.00 | 99 | 1015.0 |
| 20260508042551 | 10 | 356 | 0.0 | 0.0 | 0.00 | 0.00 | 0.00 | 99 | 1014.9 |
| 20260508042048 | 10 | 354 | 0.0 | 0.0 | 0.00 | 0.00 | 0.00 | 99 | 1015.0 |
| 20260508041544 | 10 | 354 | 0.0 | 0.0 | 0.00 | 0.00 | 0.00 | 99 | 1014.9 |
| 20260508041041 | 10 | 354 | 0.0 | 0.0 | 0.00 | 0.00 | 0.00 | 99 | 1015.0 |
| 20260508040538 | 10 | 7 | 0.0 | 0.0 | 0.00 | 0.00 | 0.00 | 99 | 1014.8 |
| 20260508040036 | 10 | 7 | 0.0 | 0.0 | 0.00 | 0.00 | 0.00 | 99 | 1014.7 |
| 20260508035532 | 10 | 7 | 0.0 | 0.0 | 0.00 | 1.75 | 1.75 | 99 | 1014.7 |
| 20260508035029 | 10 | 356 | 0.0 | 0.0 | 0.00 | 1.75 | 1.75 | 99 | 1014.6 |
| 20260508034526 | 10 | 356 | 0.0 | 0.0 | 0.00 | 1.75 | 1.75 | 99 | 1014.6 |
| 20260508034023 | 10 | 357 | 0.0 | 0.0 | 0.00 | 1.75 | 1.75 | 99 | 1014.8 |
| 20260508033521 | 10 | 355 | 0.0 | 0.0 | 0.00 | 1.75 | 1.75 | 99 | 1014.7 |
| 20260508033019 | 10 | 358 | 0.0 | 0.0 | 0.00 | 1.75 | 1.75 | 99 | 1014.6 |
| 20260508032515 | 10 | 354 | 0.0 | 0.0 | 0.00 | 1.75 | 1.75 | 99 | 1014.5 |
| 20260508032013 | 10 | 7 | 0.0 | 0.0 | 0.00 | 1.75 | 1.75 | 99 | 1014.7 |
| 20260508031510 | 10 | 7 | 0.0 | 0.0 | 0.00 | 1.75 | 1.75 | 99 | 1014.6 |
| 20260508031005 | 11 | 8 | 0.0 | 0.0 | 0.00 | 1.75 | 1.75 | 99 | 1014.5 |
| 20260508030502 | 11 | 5 | 0.0 | 0.0 | 0.00 | 1.75 | 1.75 | 99 | 1014.5 |
| 20260508030000 | 11 | 341 | 0.0 | 0.0 | 0.00 | 1.75 | 1.75 | 99 | 1014.2 |
| 20260508025456 | 11 | 341 | 0.0 | 0.0 | 0.00 | 1.75 | 1.75 | 99 | 1014.5 |
| 20260508024953 | 11 | 338 | 0.0 | 0.0 | 0.00 | 1.75 | 1.75 | 99 | 1014.5 |
| 20260508024449 | 11 | 4 | 0.0 | 0.0 | 0.00 | 1.75 | 1.75 | 99 | 1014.2 |
| 20260508023946 | 11 | 16 | 0.0 | 0.0 | 0.00 | 1.75 | 1.75 | 99 | 1013.9 |
| 20260508023443 | 11 | 357 | 0.0 | 0.0 | 0.00 | 1.75 | 1.75 | 99 | 1014.2 |
| 20260508022941 | 11 | 345 | 0.0 | 0.0 | 0.00 | 1.75 | 1.75 | 99 | 1014.0 |
| 20260508022436 | 12 | 349 | 0.0 | 0.0 | 0.00 | 1.75 | 1.75 | 99 | 1014.1 |
| 20260508021933 | 12 | 358 | 0.0 | 0.0 | 0.00 | 1.75 | 1.75 | 99 | 1013.9 |
| 20260508021429 | 12 | 345 | 0.0 | 0.0 | 0.00 | 1.75 | 1.75 | 99 | 1013.7 |
| 20260508020925 | 12 | 346 | 0.0 | 0.0 | 0.00 | 1.75 | 1.75 | 99 | 1013.9 |
| 20260508020423 | 11 | 344 | 0.0 | 0.0 | 0.00 | 1.75 | 1.75 | 99 | 1013.8 |
| 20260508015920 | 11 | 318 | 0.0 | 0.0 | 0.00 | 1.75 | 1.75 | 99 | 1013.8 |
| 20260508015418 | 11 | 2 | 0.0 | 0.0 | 0.00 | 1.75 | 1.75 | 99 | 1013.6 |
| 20260508014914 | 11 | 2 | 0.0 | 0.0 | 0.00 | 1.75 | 1.75 | 99 | 1013.4 |
| 20260508014412 | 12 | 342 | 0.0 | 0.0 | 0.00 | 1.75 | 1.75 | 99 | 1013.2 |
| 20260508013912 | 12 | 341 | 0.0 | 0.0 | 0.00 | 1.75 | 1.75 | 99 | 1013.3 |
| 20260508013408 | 12 | 341 | 0.0 | 0.0 | 0.00 | 1.75 | 1.75 | 99 | 1013.1 |
| 20260508012906 | 12 | 344 | 0.0 | 0.0 | 0.00 | 1.75 | 1.75 | 99 | 1013.1 |
| 20260508012403 | 12 | 353 | 0.0 | 0.0 | 0.00 | 1.75 | 1.75 | 99 | 1013.1 |
| 20260508011900 | 12 | 343 | 0.0 | 0.0 | 0.00 | 1.75 | 1.75 | 99 | 1012.8 |
| 20260508011359 | 12 | 345 | 0.0 | 0.0 | 0.00 | 1.75 | 1.75 | 99 | 1012.9 |
| 20260508010855 | 13 | 341 | 0.0 | 0.0 | 0.00 | 1.75 | 1.75 | 99 | 1012.4 |
| 20260508010353 | 13 | 341 | 0.0 | 0.0 | 0.00 | 1.75 | 1.75 | 99 | 1012.6 |
| 20260508005849 | 13 | 335 | 0.0 | 0.0 | 0.00 | 1.75 | 1.75 | 99 | 1012.4 |
| 20260508005346 | 13 | 354 | 0.0 | 0.0 | 0.00 | 1.75 | 1.75 | 99 | 1012.1 |
| 20260508004842 | 13 | 351 | 0.0 | 0.0 | 0.00 | 1.75 | 1.75 | 99 | 1012.2 |
| 20260508004338 | 13 | 4 | 0.0 | 0.0 | 0.00 | 1.75 | 1.75 | 99 | 1011.9 |
| 20260508003835 | 13 | 12 | 1.6 | 1.6 | 0.00 | 1.75 | 1.75 | 99 | 1012.0 |
| 20260508003333 | 13 | 1 | 0.0 | 0.0 | 0.00 | 1.75 | 1.75 | 99 | 1012.0 |
| 20260508002830 | 13 | 353 | 0.0 | 0.0 | 0.00 | 1.75 | 1.75 | 99 | 1011.7 |
| 20260508002326 | 13 | 351 | 0.0 | 0.0 | 0.00 | 1.75 | 1.75 | 99 | 1011.9 |
| 20260508001822 | 13 | 353 | 0.0 | 0.0 | 0.00 | 1.75 | 1.75 | 99 | 1012.0 |
| 20260508001318 | 13 | 350 | 0.0 | 0.0 | 0.00 | 1.75 | 1.75 | 99 | 1012.2 |
| 20260508000814 | 13 | 3 | 0.0 | 0.0 | 0.00 | 1.75 | 1.75 | 99 | 1011.7 |
| 20260508000312 | 13 | 9 | 0.0 | 0.0 | 0.00 | 1.75 | 1.75 | 99 | 1011.7 |
| 20260507235808 | 14 | 13 | 1.6 | 1.6 | 0.00 | 1.75 | 1.75 | 99 | 1011.6 |
| 20260507235307 | 14 | 351 | 1.6 | 1.6 | 0.00 | 1.75 | 1.75 | 99 | 1011.6 |
| 20260507234802 | 14 | 18 | 1.6 | 3.2 | 0.00 | 1.75 | 1.75 | 98 | 1012.1 |
| 20260507234259 | 14 | 11 | 0.0 | 0.0 | 0.00 | 1.75 | 1.75 | 98 | 1011.9 |
| 20260507233755 | 14 | 358 | 0.0 | 0.0 | 0.00 | 1.75 | 1.75 | 99 | 1011.9 |
| 20260507233253 | 14 | 8 | 1.6 | 1.6 | 0.00 | 1.75 | 1.75 | 98 | 1011.7 |
| 20260507232751 | 14 | 3 | 0.0 | 0.0 | 0.00 | 1.75 | 1.75 | 98 | 1011.6 |
| 20260507232247 | 14 | 316 | 0.0 | 0.0 | 0.00 | 1.75 | 1.75 | 99 | 1011.7 |
| 20260507231744 | 14 | 9 | 0.0 | 1.6 | 0.00 | 1.75 | 1.75 | 98 | 1011.5 |
| 20260507231241 | 14 | 350 | 1.6 | 1.6 | 0.00 | 1.75 | 1.75 | 98 | 1011.5 |
| 20260507230737 | 15 | 348 | 0.0 | 0.0 | 0.00 | 1.75 | 1.75 | 98 | 1011.6 |
| 20260507230235 | 14 | 348 | 0.0 | 0.0 | 0.00 | 1.75 | 1.75 | 97 | 1011.3 |
| 20260507225734 | 15 | 11 | 0.0 | 0.0 | 0.00 | 1.75 | 1.75 | 97 | 1011.2 |
| 20260507225231 | 15 | 2 | 1.6 | 3.2 | 0.00 | 1.75 | 1.75 | 97 | 1011.1 |
| 20260507224726 | 15 | 6 | 1.6 | 3.2 | 0.00 | 1.75 | 1.75 | 97 | 1010.9 |
| 20260507224224 | 15 | 335 | 3.2 | 3.2 | 0.00 | 1.75 | 1.75 | 97 | 1010.8 |
| 20260507223719 | 15 | 9 | 1.6 | 3.2 | 0.00 | 1.75 | 1.75 | 98 | 1010.5 |
| 20260507223217 | 15 | 18 | 1.6 | 1.6 | 0.00 | 1.75 | 1.75 | 98 | 1010.5 |
| 20260507222713 | 15 | 316 | 1.6 | 1.6 | 0.00 | 1.75 | 1.75 | 98 | 1010.7 |
| 20260507222210 | 15 | 23 | 3.2 | 4.8 | 0.00 | 1.75 | 1.75 | 97 | 1010.6 |
| 20260507221707 | 15 | 19 | 0.0 | 0.0 | 0.00 | 1.75 | 1.75 | 97 | 1010.8 |
| 20260507221203 | 15 | 2 | 1.6 | 1.6 | 0.00 | 1.75 | 1.75 | 98 | 1010.6 |
| 20260507220659 | 15 | 337 | 3.2 | 4.8 | 0.00 | 1.75 | 1.75 | 98 | 1010.3 |
| 20260507220158 | 15 | 15 | 0.0 | 0.0 | 0.00 | 1.75 | 1.75 | 98 | 1010.4 |
| 20260507215653 | 15 | 355 | 1.6 | 3.2 | 0.00 | 1.75 | 1.75 | 98 | 1009.8 |
| 20260507215151 | 15 | 28 | 1.6 | 1.6 | 0.00 | 1.75 | 1.75 | 98 | 1010.2 |
| 20260507214648 | 15 | 356 | 0.0 | 1.6 | 0.48 | 1.75 | 1.75 | 98 | 1010.2 |
| 20260507214145 | 15 | 28 | 3.2 | 4.8 | 2.29 | 1.75 | 1.75 | 98 | 1009.8 |
| 20260507213641 | 15 | 355 | 4.8 | 8.0 | 1.85 | 1.65 | 1.65 | 97 | 1010.1 |
| 20260507213138 | 15 | 19 | 3.2 | 3.2 | 0.30 | 1.37 | 1.37 | 97 | 1009.8 |
| 20260507212634 | 15 | 14 | 6.4 | 9.7 | 0.13 | 1.35 | 1.35 | 96 | 1009.5 |
| 20260507212131 | 15 | 21 | 3.2 | 3.2 | 0.00 | 1.32 | 1.32 | 95 | 1009.4 |
| 20260507211628 | 15 | 26 | 6.4 | 8.0 | 0.00 | 1.32 | 1.32 | 94 | 1010.0 |
| 20260507211123 | 15 | 34 | 4.8 | 4.8 | 0.00 | 1.32 | 1.32 | 94 | 1009.8 |
| 20260507210621 | 16 | 315 | 6.4 | 9.7 | 0.00 | 1.32 | 1.32 | 94 | 1009.3 |
| 20260507210118 | 16 | 4 | 3.2 | 3.2 | 0.00 | 1.32 | 1.32 | 95 | 1009.5 |
| 20260507205614 | 16 | 40 | 6.4 | 11.3 | 0.00 | 1.32 | 1.32 | 94 | 1009.2 |
| 20260507205111 | 16 | 28 | 4.8 | 8.0 | 0.00 | 1.32 | 1.32 | 96 | 1009.2 |
| 20260507204607 | 16 | 43 | 4.8 | 9.7 | 0.00 | 1.32 | 1.32 | 96 | 1010.0 |
| 20260507204105 | 16 | 22 | 6.4 | 8.0 | 0.00 | 1.32 | 1.32 | 96 | 1009.6 |
| 20260507203602 | 16 | 15 | 4.8 | 4.8 | 0.00 | 1.32 | 1.32 | 98 | 1009.4 |
| 20260507203100 | 15 | 7 | 3.2 | 3.2 | 0.00 | 1.32 | 1.32 | 98 | 1009.4 |
| 20260507202555 | 15 | 356 | 8.0 | 9.7 | 0.66 | 1.32 | 1.32 | 97 | 1009.1 |
| 20260507202052 | 15 | 18 | 8.0 | 9.7 | 0.48 | 1.30 | 1.30 | 97 | 1009.5 |
| 20260507201547 | 15 | 29 | 3.2 | 4.8 | 0.00 | 1.22 | 1.22 | 96 | 1009.6 |
| 20260507201044 | 15 | 39 | 8.0 | 9.7 | 0.00 | 1.22 | 1.22 | 95 | 1009.5 |
| 20260507200539 | 16 | 29 | 8.0 | 11.3 | 0.00 | 1.22 | 1.22 | 92 | 1009.4 |
| 20260507200036 | 16 | 344 | 6.4 | 8.0 | 0.00 | 1.22 | 1.22 | 89 | 1009.0 |
| 20260507195533 | 17 | 38 | 9.7 | 12.9 | 0.00 | 1.22 | 1.22 | 87 | 1009.1 |
| 20260507195031 | 17 | 24 | 8.0 | 11.3 | 0.00 | 1.22 | 1.22 | 86 | 1008.8 |
| 20260507194527 | 18 | 32 | 9.7 | 12.9 | 0.00 | 1.22 | 1.22 | 86 | 1008.6 |
| 20260507194023 | 18 | 48 | 6.4 | 8.0 | 0.00 | 1.22 | 1.22 | 85 | 1008.7 |
| 20260507193520 | 21 | 36 | 9.7 | 12.9 | 0.00 | 1.22 | 1.22 | 81 | 1008.7 |
| 20260507193017 | 23 | 314 | 0.0 | 1.6 | 0.00 | 1.22 | 1.22 | 78 | 1008.4 |
| 20260507192513 | 23 | 309 | 0.0 | 1.6 | 0.00 | 1.22 | 1.22 | 75 | 1008.2 |
| 20260507192010 | 23 | 328 | 3.2 | 3.2 | 0.00 | 1.22 | 1.22 | 75 | 1008.2 |
| 20260507191505 | 23 | 278 | 1.6 | 3.2 | 0.00 | 1.22 | 1.22 | 74 | 1008.4 |
| 20260507191003 | 25 | 259 | 1.6 | 1.6 | 0.00 | 1.22 | 1.22 | 69 | 1008.6 |
| 20260507190500 | 25 | 245 | 3.2 | 3.2 | 0.00 | 1.22 | 1.22 | 68 | 1008.1 |
| 20260507185959 | 24 | 305 | 1.6 | 3.2 | 0.00 | 1.22 | 1.22 | 72 | 1008.0 |
| 20260507185456 | 25 | 257 | 4.8 | 4.8 | 0.00 | 1.22 | 1.22 | 68 | 1008.3 |
| 20260507184952 | 23 | 247 | 3.2 | 3.2 | 0.00 | 1.22 | 1.22 | 75 | 1008.3 |
| 20260507184451 | 23 | 301 | 0.0 | 0.0 | 0.00 | 1.22 | 1.22 | 74 | 1008.2 |
| 20260507183948 | 24 | 268 | 0.0 | 1.6 | 0.00 | 1.22 | 1.22 | 75 | 1008.3 |
| 20260507183444 | 23 | 262 | 0.0 | 0.0 | 0.00 | 1.22 | 1.22 | 75 | 1008.7 |
| 20260507182942 | 23 | 254 | 1.6 | 3.2 | 0.00 | 1.22 | 1.22 | 80 | 1008.8 |
| 20260507182438 | 23 | 329 | 0.0 | 0.0 | 0.00 | 1.22 | 1.22 | 78 | 1008.6 |
| 20260507181934 | 22 | 284 | 1.6 | 1.6 | 0.00 | 1.22 | 1.22 | 77 | 1008.5 |
| 20260507181430 | 22 | 229 | 4.8 | 4.8 | 0.00 | 1.22 | 1.22 | 75 | 1008.7 |
| 20260507180927 | 22 | 301 | 0.0 | 1.6 | 0.00 | 1.22 | 1.22 | 81 | 1008.6 |
| 20260507180424 | 23 | 351 | 0.0 | 1.6 | 0.00 | 1.22 | 1.22 | 75 | 1009.0 |
| 20260507175920 | 23 | 295 | 3.2 | 3.2 | 0.00 | 1.22 | 1.22 | 74 | 1008.8 |
| 20260507175417 | 23 | 328 | 1.6 | 3.2 | 0.00 | 1.22 | 1.22 | 79 | 1009.0 |
| 20260507174914 | 23 | 197 | 1.6 | 3.2 | 0.00 | 1.22 | 1.22 | 79 | 1009.1 |
| 20260507174411 | 22 | 270 | 0.0 | 1.6 | 0.00 | 1.22 | 1.22 | 81 | 1009.2 |
| 20260507173909 | 23 | 295 | 1.6 | 1.6 | 0.00 | 1.22 | 1.22 | 83 | 1009.1 |
| 20260507173406 | 22 | 324 | 0.0 | 0.0 | 0.00 | 1.22 | 1.22 | 82 | 1009.0 |
| 20260507172902 | 21 | 303 | 0.0 | 1.6 | 0.00 | 1.22 | 1.22 | 88 | 1009.0 |
| 20260507172359 | 21 | 300 | 0.0 | 1.6 | 0.00 | 1.22 | 1.22 | 86 | 1009.4 |
| 20260507171855 | 21 | 287 | 0.0 | 1.6 | 0.00 | 1.22 | 1.22 | 85 | 1009.3 |
| 20260507171352 | 22 | 297 | 1.6 | 1.6 | 0.00 | 1.22 | 1.22 | 87 | 1009.5 |
| 20260507170849 | 22 | 268 | 0.0 | 1.6 | 0.00 | 1.22 | 1.22 | 87 | 1009.7 |
| 20260507170345 | 22 | 50 | 3.2 | 3.2 | 0.00 | 1.22 | 1.22 | 84 | 1009.6 |
| 20260507165841 | 22 | 320 | 0.0 | 0.0 | 0.00 | 1.22 | 1.22 | 88 | 1009.8 |
| 20260507165337 | 22 | 274 | 3.2 | 3.2 | 0.00 | 1.22 | 1.22 | 89 | 1009.8 |
| 20260507164834 | 21 | 321 | 0.0 | 0.0 | 0.00 | 1.22 | 1.22 | 82 | 1009.6 |
| 20260507164331 | 21 | 359 | 0.0 | 0.0 | 0.00 | 1.22 | 1.22 | 90 | 1009.7 |
| 20260507163828 | 21 | 298 | 0.0 | 0.0 | 0.00 | 1.22 | 1.22 | 90 | 1009.8 |
| 20260507163325 | 21 | 321 | 0.0 | 0.0 | 0.00 | 1.22 | 1.22 | 90 | 1009.8 |
| 20260507162821 | 20 | 331 | 0.0 | 0.0 | 0.00 | 1.22 | 1.22 | 93 | 1009.6 |
| 20260507162317 | 20 | 312 | 0.0 | 0.0 | 0.00 | 1.22 | 1.22 | 92 | 1010.0 |
| 20260507161814 | 20 | 321 | 0.0 | 0.0 | 0.00 | 1.22 | 1.22 | 93 | 1010.1 |
| 20260507161311 | 20 | 320 | 0.0 | 0.0 | 0.00 | 1.22 | 1.22 | 92 | 1010.0 |
| 20260507160807 | 21 | 316 | 0.0 | 0.0 | 0.00 | 1.22 | 1.22 | 91 | 1009.5 |
| 20260507160303 | 21 | 322 | 0.0 | 0.0 | 0.00 | 1.22 | 1.22 | 93 | 1009.6 |
| 20260507155759 | 20 | 321 | 0.0 | 0.0 | 0.00 | 1.22 | 1.22 | 93 | 1009.5 |
| 20260507155255 | 20 | 306 | 0.0 | 1.6 | 0.00 | 1.22 | 1.22 | 93 | 1009.4 |
| 20260507154752 | 20 | 306 | 1.6 | 1.6 | 0.00 | 1.22 | 1.22 | 95 | 1009.2 |
| 20260507154250 | 20 | 36 | 0.0 | 0.0 | 0.00 | 1.22 | 1.22 | 97 | 1009.4 |
| 20260507153746 | 19 | 324 | 0.0 | 0.0 | 0.00 | 1.22 | 1.22 | 97 | 1009.6 |
| 20260507153243 | 18 | 331 | 0.0 | 0.0 | 0.00 | 1.22 | 1.22 | 97 | 1009.6 |
| 20260507152739 | 18 | 332 | 0.0 | 0.0 | 0.00 | 1.22 | 1.22 | 99 | 1009.7 |
| 20260507152236 | 18 | 340 | 0.0 | 0.0 | 0.00 | 1.22 | 1.22 | 99 | 1009.6 |
| 20260507151731 | 18 | 336 | 0.0 | 0.0 | 0.13 | 1.22 | 1.22 | 99 | 1010.3 |
| 20260507151228 | 18 | 314 | 0.0 | 0.0 | 0.00 | 1.19 | 1.19 | 99 | 1010.2 |
| 20260507150725 | 18 | 351 | 0.0 | 0.0 | 0.00 | 1.19 | 1.19 | 99 | 1009.8 |
| 20260507150222 | 18 | 337 | 0.0 | 0.0 | 0.00 | 1.19 | 1.19 | 99 | 1010.5 |
| 20260507145718 | 18 | 332 | 0.0 | 0.0 | 0.00 | 1.19 | 1.19 | 99 | 1010.5 |
| 20260507145215 | 18 | 338 | 0.0 | 0.0 | 0.00 | 1.19 | 1.19 | 99 | 1010.1 |
| 20260507144712 | 18 | 311 | 0.0 | 1.6 | 0.00 | 1.19 | 1.19 | 99 | 1010.7 |
| 20260507144210 | 18 | 336 | 0.0 | 0.0 | 0.00 | 1.19 | 1.19 | 99 | 1010.8 |
| 20260507143706 | 18 | 313 | 0.0 | 0.0 | 0.00 | 1.19 | 1.19 | 99 | 1011.0 |
| 20260507143203 | 17 | 303 | 0.0 | 1.6 | 0.18 | 1.19 | 1.19 | 99 | 1010.8 |
| 20260507142658 | 17 | 316 | 0.0 | 1.6 | 0.18 | 1.19 | 1.19 | 99 | 1010.7 |
| 20260507142155 | 18 | 313 | 0.0 | 0.0 | 0.00 | 1.17 | 1.17 | 99 | 1010.6 |
| 20260507141652 | 18 | 323 | 0.0 | 0.0 | 0.00 | 1.17 | 1.17 | 99 | 1010.3 |
| 20260507141149 | 18 | 327 | 0.0 | 0.0 | 0.00 | 1.17 | 1.17 | 99 | 1010.0 |
| 20260507140645 | 17 | 331 | 0.0 | 0.0 | 0.00 | 1.17 | 1.17 | 99 | 1010.2 |
| 20260507140143 | 17 | 334 | 0.0 | 0.0 | 0.00 | 1.17 | 1.17 | 99 | 1010.2 |
| 20260507135640 | 17 | 349 | 0.0 | 0.0 | 0.00 | 1.17 | 1.17 | 99 | 1009.8 |
| 20260507135137 | 17 | 326 | 0.0 | 0.0 | 0.00 | 1.17 | 1.17 | 99 | 1010.5 |
| 20260507134633 | 17 | 325 | 0.0 | 0.0 | 0.13 | 1.17 | 1.17 | 99 | 1010.6 |
| 20260507134130 | 17 | 342 | 0.0 | 0.0 | 0.13 | 1.17 | 1.17 | 99 | 1010.4 |
| 20260507133625 | 17 | 351 | 0.0 | 0.0 | 0.00 | 1.14 | 1.14 | 99 | 1010.1 |
| 20260507133123 | 17 | 341 | 0.0 | 0.0 | 0.00 | 1.14 | 1.14 | 99 | 1010.4 |
| 20260507132620 | 17 | 335 | 0.0 | 0.0 | 0.00 | 1.14 | 1.14 | 99 | 1010.0 |
| 20260507132116 | 17 | 331 | 0.0 | 0.0 | 0.18 | 1.14 | 1.14 | 99 | 1009.7 |
| 20260507131613 | 17 | 314 | 0.0 | 0.0 | 0.18 | 1.14 | 1.14 | 99 | 1009.7 |
| 20260507131111 | 17 | 334 | 0.0 | 0.0 | 0.00 | 1.12 | 1.12 | 99 | 1009.4 |
| 20260507130607 | 17 | 2 | 0.0 | 0.0 | 0.00 | 1.12 | 1.12 | 99 | 1009.7 |
| 20260507130105 | 17 | 6 | 0.0 | 0.0 | 0.00 | 1.12 | 1.12 | 99 | 1009.7 |